Temp
46 40 38 45 44 42 40 37 36 40 47 43 42 42 46 50 48 48 49 50 51 51 49 49 49 48 49 48 49 49 50 50 50 50 53 55 59 57 56 55 53 54 55 57
41 36 43 47 44 42 40 38 38 42 46 45 40 42 46 48 48 51 52 50 50 47 46 47 46 45 45 45 46 47 48 49 48 48 52 60 54 54 53 51 51 52 52 53
37 41 47 45 41 40 37 36 37 37 42 42 40 39 41 46 48 51 51 52 51 48 46 44 44 42 43 43 43 45 46 47 46 47 55 59 56 54 51 51 50 49 50 50
39 44 43 40 39 41 34 43 43 40 36 30 37 26 39 45 46 49 48 48 48 45 44 44 43 41 41 41 42 44 44 44 46 46 53 54 53 47 48 50 49 48 48 47
37 39 39 38 40 44 40 44 42 39 34 30 30 29 35 40 43 47 44 45 44 44 43 42 42 42 40 41 39 41 42 42 42 43 45 48 49 50 49 48 46 46 45 42
39 43 44 43 45 46 46 42 39 36 33 22 31 31 30 39 43 41 42 43 43 43 42 42 42 42 40 40 40 41 41 40 40 41 41 42 42 42 41 42 40 39 39 38
36 37 40 44 41 42 42 36 21 20 25 21 31 28 32 42 46 47 45 42 42 41 40 40 40 39 39 39 40 41 40 38 38 38 38 38 38 38 37 36 36 36 35 35
32 28 39 44 42 38 37 37 24 18 20 23 31 27 35 42 44 47 47 43 42 40 40 40 40 39 39 39 38 38 37 37 37 36 36 36 36 35 34 35 34 34 34 34
27 29 38 40 43 45 37 36 39 28 18 21 26 32 41 43 41 41 41 41 40 40 40 40 40 38 38 37 37 36 37 36 35 35 35 34 34 34 33 33 33 33 34 38
36 28 35 38 43 42 40 43 32 27 15 14 24 27 32 37 40 38 39 40 42 42 41 41 40 39 38 36 36 36 36 35 34 34 34 34 33 33 32 32 32 32 33 34
38 34 34 38 37 37 38 36 36 34 27 22 19 27 38 39 40 39 39 41 41 41 41 40 40 39 38 36 35 35 34 34 33 33 32 32 31 31 32 31 31 32 32 33
40 35 32 35 36 40 41 37 37 28 26 25 26 28 42 41 41 42 41 42 42 43 43 42 40 38 36 35 34 34 33 33 33 32 31 31 31 30 29 29 30 31 31 32
41 33 25 30 35 38 38 40 40 37 33 28 24 27 40 40 41 42 43 43 46 45 43 40 38 37 36 34 34 33 32 32 32 31 30 30 29 28 28 28 29 30 30 30
45 34 30 26 30 34 33 36 38 39 30 31 30 31 37 39 40 42 44 45 44 43 43 41 39 38 36 34 33 32 31 30 30 30 29 28 28 28 28 28 28 29 28 29
40 32 31 34 35 33 34 35 37 34 35 31 33 34 40 44 44 46 48 45 43 43 42 41 39 38 36 34 33 31 30 29 29 28 28 27 28 27 27 28 28 28 28 28
40 31 33 28 33 32 32 34 35 35 36 35 35 35 44 47 46 45 45 43 42 42 42 42 40 39 37 35 33 32 30 29 28 27 26 26 27 27 27 27 27 27 27 27
36 30 28 25 28 29 24 27 32 33 36 39 33 41 44 43 43 42 42 42 42 42 42 41 39 37 37 35 33 30 28 28 27 26 26 26 26 26 26 26 26 27 26 27
32 29 27 20 21 16 31 34 37 36 37 39 39 40 43 45 43 43 43 43 42 41 41 39 36 33 31 30 28 27 27 26 26 25 25 25 25 24 25 27 26 26 26 25
36 30 21 17 6 23 29 33 33 33 35 41 39 43 42 38 35 38 41 40 40 38 37 33 29 27 26 25 24 25 23 24 23 22 23 23 24 24 24 25 24 25 25 24
34 33 25 3 9 10 27 36 38 39 28 41 40 40 37 36 30 40 39 37 36 34 31 29 22 21 19 19 22 22 21 21 20 21 22 23 24 23 24 23 24 25 25 24
16 16 20 7 8 20 32 33 38 23 30 38 38 39 35 34 39 38 38 36 33 31 26 17 15 16 16 16 20 19 18 18 20 21 21 21 22 23 24 23 24 24 23 22
23 19 12 10 11 19 33 31 32 38 35 38 37 37 36 35 36 33 34 34 32 27 21 20 16 16 14 19 21 18 18 18 19 19 21 21 21 23 23 23 23 22 22 19
24 28 24 30 30 35 31 37 39 36 38 36 36 36 36 34 33 34 31 30 29 26 19 17 16 15 14 16 18 17 15 17 18 20 17 19 20 21 22 21 20 19 19 17
25 24 26 27 33 31 34 34 33 35 35 35 34 34 33 34 34 33 31 28 25 20 18 15 14 13 13 12 16 15 16 18 17 17 18 18 18 19 19 20 19 18 16 13
25 27 21 23 28 28 31 34 38 36 34 30 30 33 34 32 32 29 29 27 22 20 15 13 14 13 12 11 11 14 16 17 17 17 17 17 17 17 16 17 16 15 15 15
24 24 27 26 35 32 38 30 34 32 33 34 32 31 28 28 30 24 25 22 20 17 13 13 11 10 10 10 10 14 17 18 16 16 16 16 15 14 14 12 11 21 20 22
MSLP
1018.33 1018.75 1018.65 1018.94 1019.30 1019.47 1019.94 1020.11 1019.95 1019.44 1019.06 1019.53 1019.61 1019.37 1018.86 1018.39 1018.56 1018.61 1018.90 1019.13 1019.40 1019.91 1020.46 1020.75 1021.02 1021.28 1021.33 1021.27 1021.28 1021.22 1020.95 1020.66 1020.30 1019.92 1019.76 1019.59 1019.70 1019.97 1020.10 1020.34 1020.42 1020.30 1020.19 1019.86
1019.36 1019.12 1019.04 1019.48 1019.66 1019.90 1020.24 1020.25 1020.16 1019.58 1019.46 1019.75 1019.79 1019.61 1018.78 1018.22 1017.82 1017.60 1017.80 1018.35 1019.03 1020.09 1020.78 1021.26 1021.59 1021.84 1021.89 1021.99 1021.91 1021.65 1021.37 1021.11 1020.71 1020.55 1019.94 1019.67 1020.14 1020.69 1020.94 1021.11 1021.14 1021.20 1020.60 1020.83
1019.46 1019.04 1018.94 1019.40 1019.89 1020.17 1020.41 1020.50 1020.38 1020.32 1020.09 1020.20 1020.32 1019.68 1018.69 1017.40 1017.01 1016.91 1017.16 1017.53 1018.37 1019.36 1020.51 1021.39 1021.92 1022.32 1022.41 1022.47 1022.44 1022.24 1022.06 1021.93 1021.19 1020.51 1020.04 1019.96 1020.31 1020.81 1021.33 1021.65 1021.74 1021.79 1021.64 1021.67
1019.69 1019.03 1019.04 1019.44 1019.87 1020.10 1020.49 1020.34 1020.53 1020.97 1021.20 1021.51 1021.23 1020.56 1019.04 1017.67 1017.02 1016.75 1016.84 1017.45 1018.14 1019.25 1020.55 1021.54 1022.10 1022.48 1022.66 1022.77 1022.77 1022.66 1022.59 1022.20 1021.63 1020.99 1020.60 1020.41 1020.73 1021.35 1021.91 1022.18 1022.36 1022.48 1022.35 1022.37
1019.27 1019.16 1019.26 1019.42 1019.42 1019.81 1020.15 1020.33 1020.94 1021.61 1022.15 1022.37 1022.23 1021.92 1018.97 1018.19 1017.17 1016.95 1017.39 1018.13 1018.94 1019.75 1020.55 1021.63 1022.31 1022.77 1023.05 1023.22 1023.34 1023.11 1022.98 1022.66 1022.31 1021.91 1021.44 1021.26 1021.48 1021.88 1022.20 1022.59 1022.98 1023.25 1023.17 1023.14
1019.42 1019.05 1019.06 1018.97 1019.06 1019.47 1020.00 1020.84 1021.77 1022.69 1023.28 1023.23 1022.24 1021.86 1019.38 1018.17 1017.09 1017.23 1017.93 1018.77 1019.64 1020.46 1021.30 1022.08 1022.65 1023.09 1023.43 1023.68 1023.63 1023.38 1023.08 1023.01 1023.09 1022.76 1022.41 1022.35 1022.43 1022.84 1022.93 1023.17 1023.77 1024.05 1023.90 1023.83
1019.67 1019.42 1019.03 1018.82 1019.26 1019.75 1020.10 1021.32 1022.96 1024.05 1024.53 1023.54 1022.59 1022.25 1019.34 1017.60 1016.98 1017.20 1017.95 1019.10 1020.18 1021.02 1021.79 1022.44 1022.90 1023.28 1023.68 1023.86 1023.75 1023.58 1023.48 1023.59 1023.82 1023.62 1023.41 1023.38 1023.31 1023.43 1023.81 1024.02 1024.29 1024.48 1024.46 1024.58
1019.60 1019.89 1019.00 1018.63 1018.51 1018.98 1020.11 1020.91 1022.25 1023.46 1024.52 1023.96 1023.03 1021.38 1018.42 1017.50 1017.34 1017.55 1018.07 1019.48 1020.56 1021.45 1022.03 1022.54 1022.83 1023.21 1023.52 1023.86 1023.92 1023.96 1023.81 1024.45 1024.38 1024.29 1024.25 1024.32 1024.30 1024.37 1024.48 1024.56 1024.69 1024.89 1025.01 1025.10
1019.11 1019.09 1018.65 1018.48 1018.33 1018.48 1020.00 1020.83 1021.76 1023.18 1024.78 1024.35 1022.55 1020.62 1018.22 1017.59 1017.93 1018.57 1019.37 1020.07 1020.93 1021.53 1021.87 1022.34 1022.83 1023.16 1023.46 1023.92 1024.06 1024.12 1024.70 1024.93 1024.99 1024.89 1024.86 1024.99 1024.98 1025.06 1025.26 1025.32 1025.33 1025.35 1025.30 1025.18
1018.10 1018.87 1018.83 1018.74 1018.47 1018.90 1019.08 1020.21 1021.72 1023.04 1024.31 1024.08 1022.34 1020.96 1018.83 1018.08 1018.50 1019.20 1019.94 1020.50 1020.96 1021.27 1021.72 1022.24 1022.69 1023.03 1023.46 1023.78 1024.17 1024.57 1024.76 1024.96 1025.14 1025.27 1025.47 1025.59 1025.75 1025.67 1025.82 1025.71 1025.80 1025.87 1025.84 1025.76
1017.98 1018.24 1019.36 1018.95 1018.68 1018.62 1019.38 1019.79 1020.71 1021.67 1022.77 1022.88 1022.30 1020.50 1018.93 1018.53 1018.33 1018.98 1019.75 1020.31 1020.67 1021.12 1021.56 1022.25 1022.59 1022.82 1023.17 1023.70 1024.04 1024.28 1024.71 1024.95 1025.38 1025.80 1025.98 1026.04 1026.05 1026.11 1026.28 1026.24 1026.27 1026.32 1026.37 1026.36
1017.66 1018.38 1019.04 1018.88 1018.97 1018.94 1018.67 1019.07 1019.82 1020.92 1022.29 1022.45 1021.94 1020.17 1018.93 1018.56 1018.39 1018.85 1019.60 1020.08 1020.47 1020.80 1021.21 1021.78 1022.29 1022.80 1023.18 1023.39 1023.81 1024.20 1024.61 1025.14 1025.58 1025.95 1026.25 1026.46 1026.51 1026.55 1026.71 1026.73 1026.75 1026.72 1026.83 1026.85
1017.22 1018.24 1019.31 1019.68 1019.71 1019.20 1018.98 1019.18 1019.48 1020.04 1020.79 1021.14 1021.39 1020.08 1019.18 1018.72 1018.57 1018.72 1019.24 1019.67 1020.05 1020.43 1021.00 1021.74 1022.13 1022.36 1022.81 1023.25 1023.64 1024.14 1024.70 1025.11 1025.62 1026.02 1026.32 1026.55 1026.77 1026.94 1027.12 1027.22 1027.20 1027.19 1027.26 1027.40
1016.73 1017.99 1018.31 1018.38 1018.21 1018.45 1019.00 1019.06 1019.34 1019.61 1020.10 1020.03 1019.91 1019.84 1019.53 1019.10 1018.90 1019.05 1019.26 1019.53 1020.18 1020.49 1020.75 1021.05 1021.49 1021.78 1022.23 1022.84 1023.40 1023.93 1024.51 1024.99 1025.64 1026.10 1026.33 1026.56 1026.92 1027.23 1027.43 1027.55 1027.69 1027.71 1027.88 1027.99
1017.19 1018.29 1018.73 1018.73 1018.63 1018.84 1018.56 1018.73 1018.87 1018.88 1019.00 1019.08 1019.04 1019.18 1018.81 1018.51 1018.43 1018.65 1018.98 1019.49 1019.91 1020.12 1020.44 1020.75 1021.06 1021.26 1021.55 1022.12 1022.62 1023.35 1024.11 1024.91 1025.46 1025.97 1026.27 1026.58 1026.89 1027.19 1027.52 1027.82 1028.08 1028.19 1028.25 1028.47
1017.52 1018.74 1019.42 1019.77 1019.63 1019.61 1019.24 1018.71 1018.52 1018.35 1018.60 1018.65 1018.83 1018.49 1018.14 1017.83 1017.97 1018.41 1018.59 1019.06 1019.41 1019.62 1019.77 1019.96 1020.36 1020.79 1021.21 1021.67 1022.17 1022.83 1023.50 1024.29 1024.97 1025.64 1026.15 1026.58 1026.90 1027.25 1027.66 1028.01 1028.34 1028.61 1028.83 1029.02
1018.03 1019.14 1020.51 1021.23 1021.15 1020.64 1019.67 1018.74 1018.24 1017.95 1017.82 1018.04 1017.94 1017.20 1017.48 1017.78 1017.73 1017.96 1018.27 1018.55 1018.93 1019.27 1019.48 1019.84 1020.26 1020.59 1020.79 1021.06 1021.39 1022.11 1022.83 1023.77 1024.74 1025.45 1026.07 1026.60 1027.04 1027.49 1027.91 1028.20 1028.47 1028.85 1029.10 1029.52
1018.41 1019.99 1021.51 1023.04 1022.81 1021.44 1018.85 1017.89 1017.41 1017.43 1017.27 1017.18 1016.98 1016.94 1016.90 1016.91 1017.04 1017.45 1017.67 1018.19 1018.60 1018.92 1019.35 1019.96 1020.54 1020.99 1021.22 1021.24 1021.50 1022.05 1022.80 1023.56 1024.45 1025.28 1025.96 1026.57 1027.07 1027.56 1027.83 1028.21 1028.57 1029.06 1029.37 1029.42
1018.16 1019.88 1022.65 1023.97 1023.66 1021.31 1019.29 1018.12 1017.38 1017.22 1016.47 1016.16 1016.47 1016.25 1016.73 1017.14 1017.54 1017.35 1017.26 1017.63 1018.09 1018.79 1019.55 1020.39 1021.14 1021.49 1021.55 1021.76 1022.09 1022.55 1023.26 1023.81 1024.58 1025.34 1025.97 1026.56 1027.06 1027.47 1027.76 1028.06 1028.25 1028.72 1029.12 1029.99
1019.27 1019.86 1021.70 1024.63 1023.65 1021.52 1018.54 1016.64 1016.22 1016.52 1015.80 1015.07 1015.47 1016.09 1016.54 1017.42 1017.89 1016.83 1016.88 1017.50 1018.37 1019.10 1020.01 1020.82 1021.71 1022.12 1022.38 1022.58 1022.74 1023.13 1023.68 1024.15 1024.75 1025.24 1025.82 1026.34 1026.86 1027.24 1027.67 1028.18 1028.44 1028.53 1029.11 1029.81
1020.80 1021.50 1022.30 1023.44 1022.63 1019.84 1017.36 1016.71 1016.39 1016.72 1015.36 1014.18 1014.89 1015.42 1016.40 1017.03 1016.40 1016.48 1016.77 1017.58 1018.26 1019.20 1020.38 1021.47 1021.98 1022.41 1022.63 1022.87 1023.10 1023.64 1024.13 1024.45 1024.66 1025.11 1025.72 1026.30 1026.78 1027.25 1027.68 1027.98 1028.70 1028.68 1029.28 1029.85
1019.80 1021.09 1021.88 1022.07 1021.57 1018.75 1016.03 1016.61 1015.59 1014.09 1014.20 1014.18 1014.61 1014.89 1015.70 1015.86 1016.26 1016.86 1017.17 1017.90 1018.66 1019.58 1020.69 1021.61 1022.32 1022.75 1022.89 1023.25 1023.37 1023.96 1024.12 1024.39 1024.83 1025.30 1025.74 1026.27 1026.76 1027.17 1027.57 1028.04 1028.64 1028.94 1029.28 1029.88
1018.83 1017.78 1018.60 1018.66 1016.70 1015.19 1014.73 1013.64 1013.17 1013.46 1013.82 1014.07 1014.18 1014.61 1015.22 1015.93 1016.41 1016.68 1017.28 1018.03 1018.64 1019.29 1020.33 1021.45 1021.96 1022.59 1022.90 1023.39 1023.30 1023.99 1024.13 1024.45 1024.95 1025.45 1026.05 1026.45 1026.81 1027.22 1027.73 1028.20 1028.82 1028.99 1029.61 1030.14
1017.68 1017.25 1017.28 1017.53 1014.55 1014.66 1014.13 1013.64 1013.62 1013.61 1013.59 1013.54 1013.80 1014.56 1015.32 1016.07 1016.27 1016.62 1017.25 1017.99 1018.74 1019.40 1020.34 1021.25 1021.99 1022.33 1022.85 1023.14 1023.50 1023.58 1024.16 1024.40 1024.90 1025.47 1025.99 1026.44 1026.87 1027.44 1027.94 1028.55 1028.94 1029.41 1030.02 1030.46
1016.39 1016.66 1016.26 1015.88 1014.48 1014.78 1014.25 1013.72 1013.07 1013.22 1013.32 1013.99 1014.48 1014.76 1015.26 1015.95 1016.18 1016.74 1017.30 1017.90 1018.54 1019.39 1020.30 1021.03 1021.55 1021.96 1022.45 1022.88 1023.42 1023.43 1023.82 1024.36 1024.90 1025.44 1025.97 1026.53 1027.03 1027.52 1028.20 1028.78 1029.16 1029.68 1030.04 1030.38
1015.04 1014.59 1014.95 1013.49 1013.19 1013.07 1012.64 1012.64 1012.69 1013.69 1013.85 1013.81 1014.52 1014.79 1015.05 1015.69 1016.00 1016.44 1016.91 1017.23 1018.09 1018.95 1019.76 1020.56 1021.19 1021.74 1022.23 1022.77 1023.12 1023.40 1023.60 1024.10 1024.60 1025.33 1025.96 1026.51 1027.14 1027.88 1028.67 1029.29 1029.70 1029.67 1030.13 1030.15
Wind_Speed
1 4 9 11 5 4 5 3 4 3 4 4 7 8 9 9 6 8 8 7 7 5 4 5 5 5 4 7 7 6 6 6 4 3 2 3 3 4 6 6 8 8 6 9
4 6 4 4 3 4 1 3 4 1 1 5 3 10 10 9 8 10 11 10 9 7 6 5 5 5 6 5 6 6 6 7 5 2 2 2 3 5 5 4 8 7 11 8
7 4 8 6 4 5 2 3 2 0 3 2 5 8 6 6 6 7 7 8 7 13 11 6 5 5 5 6 6 6 6 5 4 5 1 6 5 3 3 4 5 7 9 8
3 3 6 5 4 6 4 6 4 3 3 3 2 7 7 4 7 5 5 7 8 10 7 6 6 4 4 3 4 5 5 6 6 7 3 3 3 3 2 4 5 6 8 9
8 5 4 3 6 7 6 5 6 2 1 2 2 1 9 4 7 7 1 4 5 7 9 8 6 4 3 4 3 4 4 7 7 7 5 4 6 5 4 4 6 7 7 7
5 1 6 9 4 6 6 6 7 4 2 3 8 8 6 4 4 1 3 5 6 8 7 7 5 5 3 1 2 3 6 6 7 6 7 7 7 5 4 5 4 3 4 4
2 2 1 3 7 2 4 7 2 3 2 7 1 2 8 7 5 5 8 9 7 7 7 6 6 4 3 2 2 3 5 6 5 6 7 6 6 7 6 5 3 4 3 3
10 5 8 6 7 8 5 7 6 8 5 4 3 7 7 2 5 5 8 8 7 6 5 6 6 5 4 3 1 2 5 3 5 5 6 6 6 4 4 4 4 3 3 3
6 5 2 2 4 9 6 6 5 6 2 3 4 7 10 2 6 7 7 7 6 6 7 7 5 5 4 4 3 2 2 2 4 5 5 5 5 5 5 5 5 3 3 4
6 3 1 1 4 4 6 8 2 3 1 4 4 5 5 2 3 4 5 6 6 5 6 5 5 5 4 3 3 4 3 3 3 4 3 4 4 5 4 4 5 5 4 4
4 4 0 5 6 10 5 5 3 5 5 4 1 6 5 4 2 8 7 7 6 6 5 4 6 6 6 5 6 4 4 4 3 3 3 4 4 5 4 4 4 5 5 5
4 4 5 11 2 3 4 6 5 5 4 3 3 6 3 5 4 6 6 5 5 7 7 7 6 6 7 7 6 6 5 5 5 4 4 4 4 5 5 4 4 5 5 5
8 3 5 1 4 4 4 4 6 5 4 6 6 6 4 4 6 5 8 4 4 5 5 4 6 8 7 6 6 6 6 6 5 5 5 5 4 5 4 4 4 5 5 5
7 2 5 5 3 6 8 9 6 11 5 5 6 3 5 4 5 4 5 5 5 7 8 7 7 7 7 6 7 7 6 6 6 6 5 5 5 4 4 4 5 5 5 5
6 7 4 2 2 2 5 10 15 14 11 9 7 9 8 7 7 8 6 3 5 7 7 8 8 8 8 8 8 6 6 7 6 6 6 5 5 5 5 5 5 5 5 5
3 4 4 3 2 1 4 8 9 10 7 7 3 11 6 7 4 6 7 6 6 7 7 7 4 5 7 8 8 9 10 9 9 7 6 6 6 5 5 5 5 6 5 5
7 6 4 3 4 4 8 8 7 5 5 11 15 16 6 9 9 7 8 7 7 8 7 7 6 5 7 5 8 10 11 10 9 8 7 7 6 6 5 6 6 7 7 6
10 7 3 2 2 5 6 3 5 9 7 11 6 5 10 11 6 6 7 6 8 7 7 5 4 5 6 2 4 8 9 10 10 8 8 7 7 7 7 7 8 7 6 6
4 6 4 6 5 5 5 5 9 9 14 15 13 16 8 2 2 8 7 8 9 5 4 3 2 3 3 3 5 8 8 9 9 8 8 8 8 8 7 8 8 8 8 6
6 4 6 4 6 9 7 6 7 7 9 10 12 12 9 7 3 9 5 5 7 7 4 4 2 1 2 1 6 8 8 9 8 9 9 8 8 8 8 7 7 6 7 7
4 4 9 3 4 9 9 5 5 7 9 6 9 10 9 8 8 5 7 5 4 4 6 3 3 4 4 4 6 6 6 7 8 9 9 7 6 7 8 7 5 6 7 8
9 8 5 4 3 15 9 5 13 8 4 5 7 8 8 8 6 7 8 7 7 8 6 6 5 5 4 5 7 8 8 8 8 9 9 9 8 7 6 8 6 6 8 8
4 8 8 12 11 3 8 9 13 6 7 8 6 6 8 7 6 8 7 9 10 9 6 5 7 6 5 5 6 9 7 9 8 9 8 8 7 7 7 7 7 6 6 6
4 2 4 6 10 10 10 6 5 8 9 6 5 6 8 8 9 9 6 7 6 5 7 5 7 7 7 5 5 5 10 9 10 10 9 8 8 7 6 4 4 5 4 4
6 9 6 7 8 4 6 12 13 12 8 1 2 6 9 7 10 8 7 7 7 7 5 6 8 8 8 7 6 8 10 10 10 9 9 8 6 7 6 4 4 4 2 5
8 10 8 9 11 8 11 8 10 8 8 9 7 8 7 9 11 6 8 6 6 7 6 7 6 6 7 7 7 8 10 11 11 10 8 7 7 6 5 5 3 9 10 11
Wind_Direction
140 123 191 200 139 85 139 154 200 220 231 168 234 258 254 262 270 263 250 243 241 164 133 87 67 53 61 38 36 22 15 2 9 2 4 44 77 54 58 51 38 35 40 39
59 226 169 145 149 107 12 170 244 297 70 165 292 274 261 257 236 224 231 222 198 161 160 123 90 59 51 51 31 22 17 6 2 328 301 106 99 74 72 63 47 33 43 34
169 218 162 147 155 168 220 199 220 266 354 33 349 279 273 276 254 247 236 219 175 176 168 150 109 78 61 49 28 27 12 351 354 343 194 107 98 92 51 31 50 32 41 35
231 253 148 141 179 141 211 206 162 141 62 235 25 286 302 285 288 283 255 195 169 143 124 134 138 116 104 69 42 36 18 8 13 4 36 88 114 113 74 77 70 46 38 39
238 173 142 145 180 157 212 140 157 168 115 357 279 292 270 293 279 245 153 138 124 128 132 137 138 127 87 64 45 43 42 29 15 20 37 61 89 93 98 79 72 54 45 35
204 24 156 186 145 161 134 87 56 54 84 301 207 176 265 221 234 38 117 127 128 122 117 120 128 134 121 92 79 59 61 42 23 32 38 62 86 93 85 73 72 47 34 28
150 226 270 147 94 61 109 105 30 347 244 232 16 197 260 266 272 233 177 158 142 126 137 147 159 162 154 131 83 74 61 54 34 41 44 52 74 82 89 92 92 73 42 25
176 221 181 187 177 165 176 153 155 199 198 264 87 234 250 238 7 349 110 118 125 135 152 180 191 183 176 182 117 88 72 70 57 63 55 48 48 58 73 86 90 80 73 60
138 254 127 163 145 139 187 198 160 106 37 49 226 285 300 120 52 64 95 120 144 173 191 200 200 203 198 203 191 128 141 80 59 67 69 68 79 78 76 70 70 77 71 82
218 108 289 122 101 60 146 150 103 25 167 249 277 280 247 316 151 101 134 146 191 201 209 212 219 218 218 220 201 185 153 134 104 84 93 87 76 75 83 90 83 76 70 69
163 105 97 124 213 172 147 178 174 128 151 182 245 265 226 301 268 168 176 190 199 223 242 230 230 221 215 212 202 186 166 142 139 136 110 105 95 87 75 75 80 80 74 71
182 132 180 198 356 300 203 195 153 148 185 232 163 270 332 347 68 127 164 177 212 226 232 225 226 223 220 215 199 194 178 172 173 158 134 117 105 96 93 90 90 83 79 72
168 181 120 84 317 339 223 181 177 126 107 193 150 260 344 114 95 124 138 177 233 258 261 244 232 229 231 219 201 199 188 184 171 154 143 134 118 110 111 104 93 84 82 77
113 125 168 198 211 144 189 194 187 195 203 174 204 179 258 229 153 155 176 207 245 245 244 246 258 245 235 211 205 196 190 175 164 158 150 138 138 131 119 106 93 85 79 79
121 191 198 272 208 194 176 178 199 209 207 204 174 200 226 234 219 191 224 253 228 251 263 244 245 244 234 219 209 180 173 168 162 156 150 148 136 130 124 111 97 88 84 80
165 129 157 223 320 89 224 217 207 219 228 257 239 255 217 242 282 248 240 251 269 281 281 296 294 265 235 218 204 185 178 170 161 158 154 144 139 136 131 119 108 96 84 78
129 124 110 243 353 23 278 209 196 188 186 221 230 242 205 226 234 229 248 247 261 271 279 289 288 292 301 257 189 184 168 151 153 150 147 148 141 132 126 119 112 106 98 87
143 113 81 173 48 257 259 335 197 198 202 209 215 203 208 224 218 212 213 220 242 245 260 266 285 309 315 333 127 129 144 150 148 146 148 145 140 135 131 126 120 118 114 109
124 124 119 153 194 298 286 199 165 171 241 219 216 233 230 186 84 274 220 212 227 223 211 223 225 252 296 144 133 130 135 138 140 146 145 144 145 142 140 140 140 139 132 134
84 68 123 106 148 217 236 215 136 97 262 236 200 223 218 134 212 252 218 185 204 199 195 212 141 59 126 117 127 132 145 145 146 147 148 146 146 147 148 145 149 137 140 137
85 36 183 170 209 281 236 189 145 134 234 229 175 210 166 192 214 197 157 189 193 191 179 132 149 183 188 157 135 134 141 159 147 137 136 135 137 142 140 134 142 134 130 119
156 149 174 93 80 261 164 81 170 198 194 186 191 199 196 216 191 195 220 236 212 198 176 172 170 184 180 164 147 153 159 147 140 140 142 140 140 141 141 144 137 132 134 125
209 183 182 185 211 197 203 194 219 160 178 211 195 190 195 211 218 225 220 223 224 205 184 173 171 169 182 178 161 158 159 145 140 140 139 141 136 136 138 140 147 132 130 132
254 171 189 96 242 209 220 246 237 194 220 210 211 175 169 209 230 242 240 229 216 196 195 165 168 173 178 182 163 146 155 149 146 146 144 141 138 134 126 121 128 132 141 126
191 147 168 262 273 7 242 226 230 232 240 151 162 192 222 216 250 226 239 223 206 199 175 172 186 181 181 165 158 153 153 152 150 148 148 147 143 139 128 114 126 137 102 152
176 182 181 225 211 192 246 201 213 215 232 235 228 265 243 188 234 193 224 201 190 196 166 183 181 170 169 162 156 158 160 161 153 153 156 156 145 131 125 127 125 143 155 149